CEB5265 RPVD-RPUV

Flight info

Callsign CEB5265
Flight time N/A
Altitude 32000
Route AROLA3R AROLA G578 MCT W8 MASBA
Aircraft A321/M-SDE3FGHIRWY/LB1

Departure

Time 2026-04-29 11:56
Airport Sibulan Airport (RPVD)

Arrival

Time N/A
Airport Virac Airport (RPUV)
Time Latitude Longitude Altitude Speed Heading
2026-04-29 11:34 9.33324 123.29550 61 ft 0 kts 144°
2026-04-29 11:49 9.33325 123.29549 61 ft 1 kts 144°
2026-04-29 11:50 9.33339 123.29542 61 ft 2 kts 175°
2026-04-29 11:50 9.33354 123.29543 61 ft 2 kts 201°
2026-04-29 11:50 9.33367 123.29552 61 ft 2 kts 230°
2026-04-29 11:50 9.33374 123.29565 61 ft 2 kts 258°
2026-04-29 11:51 9.33374 123.29573 61 ft 1 kts 275°
2026-04-29 11:51 9.33374 123.29579 61 ft 0 kts 273°
2026-04-29 11:53 9.33374 123.29577 61 ft 0 kts 273°
2026-04-29 11:53 9.33374 123.29570 61 ft 0 kts 273°
2026-04-29 11:53 9.33375 123.29563 61 ft 0 kts 273°
2026-04-29 11:54 9.33376 123.29552 61 ft 2 kts 278°
2026-04-29 11:54 9.33387 123.29528 61 ft 5 kts 309°
2026-04-29 11:54 9.33417 123.29497 61 ft 6 kts 317°
2026-04-29 11:54 9.33450 123.29462 61 ft 7 kts 292°
2026-04-29 11:55 9.33452 123.29413 61 ft 5 kts 253°
2026-04-29 11:55 9.33464 123.29405 61 ft 3 kts 47°
2026-04-29 11:55 9.33464 123.29425 61 ft 0 kts 97°
2026-04-29 11:55 9.33455 123.29521 61 ft 48 kts 94°
2026-04-29 11:56 9.33420 123.30132 61 ft 121 kts 93°
2026-04-29 11:56 9.33361 123.31139 285 ft 153 kts 92°
2026-04-29 11:56 9.33326 123.32205 957 ft 152 kts 90°
2026-04-29 11:56 9.33368 123.33199 1558 ft 139 kts 68°
2026-04-29 11:57 9.34028 123.33935 1838 ft 145 kts 40°
2026-04-29 11:57 9.34761 123.34669 2074 ft 157 kts 50°
2026-04-29 11:57 9.35535 123.35558 2292 ft 174 kts 48°
2026-04-29 11:57 9.36376 123.36520 2572 ft 190 kts 50°
2026-04-29 11:58 9.37251 123.37579 2863 ft 206 kts 50°
2026-04-29 11:58 9.38215 123.38745 3090 ft 227 kts 50°
2026-04-29 11:58 9.39266 123.40002 3638 ft 235 kts 50°
2026-04-29 11:58 9.40311 123.41245 4332 ft 236 kts 49°
2026-04-29 11:59 9.41374 123.42506 5034 ft 237 kts 49°
2026-04-29 11:59 9.42455 123.43785 5710 ft 240 kts 49°
2026-04-29 11:59 9.43530 123.45055 6377 ft 242 kts 49°
2026-04-29 11:59 9.44270 123.45924 6833 ft 243 kts 47°
2026-04-29 12:00 9.45894 123.47495 7695 ft 247 kts 39°
2026-04-29 12:00 9.47314 123.48576 8071 ft 262 kts 36°
2026-04-29 12:00 9.48839 123.49683 8520 ft 272 kts 36°
2026-04-29 12:00 9.50394 123.50806 9146 ft 275 kts 36°
2026-04-29 12:01 9.51948 123.51928 9780 ft 277 kts 36°
2026-04-29 12:01 9.53519 123.53065 10345 ft 281 kts 36°
2026-04-29 12:01 9.55139 123.54238 10642 ft 295 kts 36°
2026-04-29 12:01 9.56866 123.55489 10902 ft 310 kts 36°
2026-04-29 12:02 9.58662 123.56790 11150 ft 324 kts 36°
2026-04-29 12:02 9.60686 123.57860 11349 ft 340 kts 17°
2026-04-29 12:02 9.63127 123.58064 11602 ft 354 kts
2026-04-29 12:02 9.65610 123.58064 11986 ft 360 kts
2026-04-29 12:03 9.68088 123.58089 12778 ft 353 kts
2026-04-29 12:03 9.70513 123.58134 13633 ft 344 kts
2026-04-29 12:03 9.72915 123.58192 14209 ft 344 kts
2026-04-29 12:03 9.75329 123.58258 14637 ft 348 kts
2026-04-29 12:04 9.77763 123.58328 15058 ft 352 kts
2026-04-29 12:04 9.80229 123.58401 15483 ft 356 kts
2026-04-29 12:04 9.82703 123.58476 15971 ft 357 kts
2026-04-29 12:04 9.85192 123.58549 16469 ft 357 kts
2026-04-29 12:05 9.87688 123.58624 16878 ft 360 kts
2026-04-29 12:05 9.90210 123.58701 17263 ft 364 kts
2026-04-29 12:05 9.92755 123.58757 17648 ft 367 kts
2026-04-29 12:05 9.95317 123.58800 18042 ft 370 kts
2026-04-29 12:06 9.97917 123.58841 18453 ft 371 kts
2026-04-29 12:06 10.00499 123.58884 18845 ft 374 kts
2026-04-29 12:06 10.03111 123.58929 19226 ft 376 kts
2026-04-29 12:06 10.05737 123.58973 19601 ft 378 kts
2026-04-29 12:07 10.08413 123.59019 19981 ft 380 kts
2026-04-29 12:07 10.11052 123.59065 20342 ft 382 kts
2026-04-29 12:07 10.13736 123.59113 20703 ft 384 kts
2026-04-29 12:07 10.16431 123.59161 21066 ft 386 kts
2026-04-29 12:08 10.19108 123.59207 21414 ft 387 kts
2026-04-29 12:08 10.21831 123.59255 21764 ft 389 kts
2026-04-29 12:08 10.24521 123.59302 22109 ft 391 kts
2026-04-29 12:08 10.27281 123.59351 22447 ft 393 kts
2026-04-29 12:09 10.30021 123.59400 22768 ft 395 kts
2026-04-29 12:09 10.32768 123.59449 23073 ft 398 kts
2026-04-29 12:09 10.35548 123.59496 23388 ft 401 kts
2026-04-29 12:09 10.38353 123.59545 23708 ft 403 kts
2026-04-29 12:10 10.41176 123.59593 24031 ft 405 kts
2026-04-29 12:10 10.44001 123.59644 24343 ft 407 kts
2026-04-29 12:10 10.46864 123.59695 24648 ft 410 kts
2026-04-29 12:10 10.49752 123.59745 24958 ft 412 kts
2026-04-29 12:11 10.52590 123.59795 25264 ft 414 kts
2026-04-29 12:11 10.55518 123.59847 25566 ft 416 kts
2026-04-29 12:11 10.58430 123.59898 25777 ft 421 kts
2026-04-29 12:11 10.61397 123.59952 25910 ft 427 kts
2026-04-29 12:12 10.64373 123.60005 26041 ft 433 kts
2026-04-29 12:12 10.67435 123.60059 26171 ft 438 kts
2026-04-29 12:12 10.70510 123.60114 26295 ft 444 kts
2026-04-29 12:12 10.73618 123.60169 26412 ft 449 kts
2026-04-29 12:13 10.76756 123.60223 26524 ft 454 kts
2026-04-29 12:13 10.79950 123.60278 26634 ft 458 kts
2026-04-29 12:13 10.83137 123.60335 26738 ft 463 kts
2026-04-29 12:13 10.86380 123.60390 26871 ft 466 kts
2026-04-29 12:14 10.89644 123.60448 27108 ft 467 kts
2026-04-29 12:14 10.92902 123.60506 27410 ft 466 kts
2026-04-29 12:14 10.96123 123.60561 27713 ft 465 kts
2026-04-29 12:14 10.99366 123.60620 28010 ft 465 kts
2026-04-29 12:15 11.02601 123.60677 28304 ft 464 kts
2026-04-29 12:15 11.05871 123.60735 28602 ft 464 kts
2026-04-29 12:15 11.09090 123.60792 28896 ft 464 kts
2026-04-29 12:15 11.12302 123.60850 29178 ft 464 kts
2026-04-29 12:16 11.15568 123.60908 29475 ft 464 kts
2026-04-29 12:16 11.18806 123.60963 29784 ft 463 kts
2026-04-29 12:16 11.22018 123.61020 30082 ft 463 kts
2026-04-29 12:16 11.25247 123.61076 30350 ft 464 kts
2026-04-29 12:17 11.28481 123.61131 30583 ft 465 kts
2026-04-29 12:17 11.31759 123.61189 30817 ft 467 kts
2026-04-29 12:17 11.34987 123.61245 31049 ft 468 kts
2026-04-29 12:17 11.38274 123.61303 31224 ft 471 kts
2026-04-29 12:18 11.44879 123.61419 31422 ft 479 kts
2026-04-29 12:18 11.51610 123.61538 31607 ft 486 kts
2026-04-29 12:19 11.58415 123.61659 31772 ft 491 kts
2026-04-29 12:19 11.65315 123.61781 31909 ft 495 kts
2026-04-29 12:20 11.72214 123.61901 31918 ft 495 kts
2026-04-29 12:20 11.79083 123.62022 31924 ft 495 kts
2026-04-29 12:21 11.85983 123.62143 31925 ft 494 kts
2026-04-29 12:21 11.92893 123.62266 31926 ft 494 kts
2026-04-29 12:22 11.99776 123.62389 31928 ft 494 kts
2026-04-29 12:22 12.06669 123.62511 31929 ft 495 kts
2026-04-29 12:23 12.13515 123.62632 31577 ft 487 kts
2026-04-29 12:23 12.16903 123.62692 30980 ft 482 kts
2026-04-29 12:23 12.20237 123.62751 30077 ft 483 kts
2026-04-29 12:24 12.21355 123.62771 29746 ft 484 kts